Flag for Iran Weather past 2 weeks in Bandar-Abbas, Iran

Now
61 °F

Clear.


Feels Like: 61 °F
Forecast: 55 / 78 °F
Wind: 5 mph from North

Location: Bandarabbass

Current Time: Dec 18, 2014 at 1:03:05 AM

Latest Report: Dec 18, 2014 at 12:30 AM


Visibility: 4 mi

Pressure: 30.07 "Hg

Humidity: 83%

Dew point: 55 °F

Location of Bandar-AbbasLocation

Historic Weather in Bandar-Abbas — Graph

°F

Bandar-Abbas temperature yesterday

Maximum temperature yesterday: 77 °F (at 12:30 PM)
Minimum temperature yesterday: 52 °F (at 6:30 AM)
Average temperature yesterday: 67 °F

Past Weeks' High & Low Weather Summary

 TemperatureHumidityPressure
High88 °F (Dec 7, 2:00 PM)94% (Dec 17, 6:30 AM)30.18 "Hg (Dec 17, 6:30 AM)
Low48 °F (Dec 11, 6:30 AM)11% (Dec 14, 12:30 AM)29.95 "Hg (Dec 11, 2:30 PM)
Average69 °F43%30.07 "Hg
* Reported Dec 2 11:30 PM — Dec 17 11:30 PM, Bandar-Abbas, Weather by CustomWeather, © 2014

Note: Actual official high and low records may vary slightly from our data, if they occured in-between our weather recording intervals... More about our weather records

Advertising

Bandar-Abbas weather history for previous 24 hours

 ConditionsComfort  
Time TempWeatherWind HumidityBarometerVisibility
11:30 PM
Dec 17
63 °FClear.7 mph77%30.07 "Hg4 mi
11:00 PM63 °FClear.7 mph77%30.07 "Hg4 mi
10:30 PM64 °FClear.5 mph78%30.07 "Hg4 mi
10:00 PM66 °FClear.5 mph73%30.07 "Hg4 mi
9:30 PM70 °FClear.5 mph73%30.07 "Hg4 mi
9:00 PM70 °FClear.7 mph73%30.07 "Hg4 mi
8:30 PM72 °FClear.9 mph69%30.07 "Hg4 mi
8:00 PM72 °FClear.9 mph69%30.07 "Hg4 mi
7:30 PM72 °FClear.9 mph69%30.07 "Hg4 mi
7:00 PM72 °FClear.7 mph69%30.07 "Hg4 mi
6:30 PM70 °FClear.12 mph73%30.07 "Hg4 mi
6:00 PM70 °FClear.9 mph73%30.07 "Hg4 mi
5:30 PM72 °FClear.12 mph69%30.04 "Hg4 mi
5:00 PM72 °FClear.12 mph69%30.04 "Hg4 mi
4:30 PM73 °FClear.12 mph61%30.04 "Hg4 mi
4:00 PM73 °FClear.14 mph57%30.04 "Hg4 mi
3:30 PM75 °FClear.12 mph54%30.04 "Hg4 mi
3:00 PM77 °FClear.12 mph47%30.04 "Hg4 mi
2:30 PM77 °FClear.12 mph47%30.07 "Hg4 mi
1:30 PM75 °FSunny.9 mph47%30.07 "Hg4 mi
1:00 PM77 °FSunny.12 mph47%30.07 "Hg4 mi
12:30 PM77 °FSunny.12 mph47%30.09 "Hg4 mi
12:00 PM75 °FClear.9 mph50%30.09 "Hg4 mi
11:30 AM75 °FClear.7 mph54%30.12 "Hg4 mi
11:00 AM75 °FClear.7 mph54%30.12 "Hg5 mi
10:30 AM73 °FClear.7 mph57%30.15 "Hg5 mi
10:00 AM72 °FClear.5 mph61%30.15 "Hg5 mi
9:30 AM70 °FClear.7 mph57%30.15 "Hg5 mi
9:00 AM68 °FPassing clouds.9 mph56%30.15 "Hg5 mi
8:30 AM66 °FPassing clouds.9 mph60%30.12 "Hg4 mi
8:00 AM63 °FHaze.No wind73%30.12 "Hg4 mi
7:30 AM54 °FFog.5 mph88%30.12 "Hg3 mi
7:00 AM52 °FFog.No wind94%30.09 "Hg2 mi
6:30 AM52 °FFog.No wind94%30.09 "Hg2 mi
6:00 AM55 °FFog.2 mph88%30.09 "Hg3 mi
5:30 AM55 °FFog.5 mph88%30.09 "Hg3 mi
3:20 AM55 °FClear.5 mph88%30.09 "Hg4 mi
2:30 AM55 °FClear.5 mph88%30.09 "Hg10 mi
1:30 AM55 °FClear.5 mph88%30.09 "Hg10 mi
1:00 AM57 °FClear.5 mph88%30.09 "Hg10 mi
Weather by CustomWeather, © 2014

See weather overviewHow to use our weather pages